| time (UTC) | temp C | wind direction | speed KPH | gust KPH | rain 1hr cm | rain 24hr cm | rain mn cm | humidity % | barometer mb |
| 20260509184600 | 2 | 291 | 0.0 | 0.0 | 0.00 | 0.00 | 0.00 | 93 | 1028.5 |
| 20260509183059 | 2 | 291 | 0.0 | 0.0 | 0.00 | 0.00 | 0.00 | 93 | 1028.3 |
| 20260509181603 | 2 | 291 | 0.0 | 0.0 | 0.00 | 0.00 | 0.00 | 93 | 1028.2 |
| 20260509180058 | 2 | 291 | 0.0 | 0.0 | 0.00 | 0.00 | 0.00 | 93 | 1028.0 |
| 20260509174602 | 2 | 291 | 0.0 | 0.0 | 0.00 | 0.00 | 0.00 | 93 | 1027.9 |
| 20260509173107 | 2 | 291 | 0.0 | 0.0 | 0.00 | 0.00 | 0.00 | 93 | 1027.8 |
| 20260509171555 | 3 | 291 | 0.0 | 0.0 | 0.00 | 0.00 | 0.00 | 93 | 1027.9 |
| 20260509170120 | 3 | 291 | 0.0 | 0.0 | 0.00 | 0.00 | 0.00 | 92 | 1027.9 |
| 20260509164548 | 3 | 291 | 0.0 | 0.0 | 0.00 | 0.00 | 0.00 | 92 | 1027.9 |
| 20260509163047 | 3 | 291 | 0.0 | 0.0 | 0.00 | 0.00 | 0.00 | 92 | 1027.8 |
| 20260509161544 | 3 | 291 | 0.0 | 0.0 | 0.00 | 0.00 | 0.00 | 92 | 1027.7 |
| 20260509160043 | 3 | 291 | 0.0 | 0.0 | 0.00 | 0.00 | 0.00 | 92 | 1027.8 |
| 20260509154547 | 3 | 291 | 0.0 | 0.0 | 0.00 | 0.00 | 0.00 | 92 | 1027.9 |
| 20260509153039 | 4 | 291 | 0.0 | 0.0 | 0.00 | 0.00 | 0.00 | 92 | 1027.9 |
| 20260509151542 | 4 | 291 | 0.0 | 0.0 | 0.00 | 0.00 | 0.00 | 92 | 1027.8 |
| 20260509150037 | 4 | 291 | 0.0 | 0.0 | 0.00 | 0.00 | 0.00 | 92 | 1027.8 |
| 20260509144544 | 4 | 291 | 0.0 | 0.0 | 0.00 | 0.00 | 0.00 | 92 | 1027.8 |
| 20260509143038 | 5 | 291 | 0.0 | 0.0 | 0.00 | 0.00 | 0.00 | 92 | 1027.8 |
| 20260509141537 | 5 | 291 | 0.0 | 0.0 | 0.00 | 0.00 | 0.00 | 92 | 1027.8 |
| 20260509140052 | 5 | 291 | 0.0 | 0.0 | 0.00 | 0.00 | 0.00 | 91 | 1027.8 |
| 20260509134530 | 5 | 291 | 0.0 | 0.0 | 0.00 | 0.00 | 0.00 | 91 | 1027.7 |
| 20260509133029 | 5 | 291 | 0.0 | 0.0 | 0.00 | 0.00 | 0.00 | 91 | 1027.7 |
| 20260509131536 | 5 | 291 | 0.0 | 0.0 | 0.00 | 0.00 | 0.00 | 91 | 1027.8 |
| 20260509130030 | 5 | 291 | 0.0 | 0.0 | 0.00 | 0.00 | 0.00 | 91 | 1027.9 |
| 20260509124533 | 6 | 291 | 0.0 | 0.0 | 0.00 | 0.00 | 0.00 | 91 | 1027.8 |
| 20260509123027 | 6 | 291 | 0.0 | 0.0 | 0.00 | 0.00 | 0.00 | 90 | 1027.7 |
| 20260509121531 | 6 | 291 | 0.0 | 0.0 | 0.00 | 0.00 | 0.00 | 90 | 1027.5 |
| 20260509120032 | 6 | 291 | 0.0 | 0.0 | 0.00 | 0.00 | 0.00 | 90 | 1027.7 |
| 20260509114526 | 6 | 291 | 0.0 | 0.0 | 0.00 | 0.00 | 0.00 | 89 | 1027.6 |
| 20260509113022 | 6 | 291 | 0.0 | 0.0 | 0.00 | 0.00 | 0.00 | 89 | 1027.8 |
| 20260509111521 | 7 | 291 | 0.0 | 0.0 | 0.00 | 0.00 | 0.00 | 89 | 1027.6 |
| 20260509110020 | 7 | 291 | 0.0 | 0.0 | 0.00 | 0.00 | 0.00 | 88 | 1027.4 |
| 20260509104519 | 7 | 291 | 0.0 | 0.0 | 0.00 | 0.00 | 0.00 | 87 | 1027.3 |
| 20260509103016 | 7 | 291 | 0.0 | 0.0 | 0.00 | 0.00 | 0.00 | 87 | 1027.1 |
| 20260509101515 | 8 | 291 | 0.0 | 0.0 | 0.00 | 0.00 | 0.00 | 86 | 1026.9 |
| 20260509100014 | 8 | 291 | 0.0 | 0.0 | 0.00 | 0.00 | 0.00 | 85 | 1026.9 |
| 20260509094514 | 8 | 291 | 0.0 | 0.0 | 0.00 | 0.00 | 0.00 | 84 | 1026.7 |
| 20260509093013 | 9 | 291 | 0.0 | 0.0 | 0.00 | 0.00 | 0.00 | 83 | 1026.7 |
| 20260509091513 | 9 | 291 | 0.0 | 0.0 | 0.00 | 0.00 | 0.00 | 82 | 1026.6 |
| 20260509090014 | 10 | 291 | 0.0 | 0.0 | 0.00 | 0.00 | 0.00 | 81 | 1026.4 |
| 20260509084515 | 10 | 291 | 0.0 | 0.0 | 0.00 | 0.00 | 0.00 | 79 | 1026.2 |
| 20260509083011 | 11 | 291 | 0.0 | 0.0 | 0.00 | 0.00 | 0.00 | 78 | 1026.0 |
| 20260509081511 | 11 | 291 | 0.0 | 0.0 | 0.00 | 0.00 | 0.00 | 76 | 1025.8 |
| 20260509080011 | 12 | 291 | 0.0 | 0.0 | 0.00 | 0.00 | 0.00 | 73 | 1025.4 |
| 20260509074512 | 13 | 291 | 0.0 | 0.0 | 0.00 | 0.00 | 0.00 | 70 | 1025.2 |
| 20260509071512 | 15 | 291 | 0.0 | 1.6 | 0.00 | 0.00 | 0.00 | 65 | 1024.9 |
| 20260509070009 | 16 | 291 | 0.0 | 6.4 | 0.00 | 0.00 | 0.00 | 62 | 1024.7 |
| 20260509064508 | 16 | 291 | 0.0 | 8.0 | 0.00 | 0.00 | 0.00 | 60 | 1024.5 |
| 20260509063007 | 17 | 292 | 0.0 | 8.0 | 0.00 | 0.00 | 0.00 | 58 | 1024.4 |
| 20260509061514 | 17 | 292 | 0.0 | 6.4 | 0.00 | 0.00 | 0.00 | 56 | 1024.4 |
| 20260509060011 | 17 | 291 | 0.0 | 4.8 | 0.00 | 0.00 | 0.00 | 57 | 1024.3 |
| 20260509054506 | 17 | 291 | 0.0 | 4.8 | 0.00 | 0.00 | 0.00 | 56 | 1024.3 |
| 20260509053005 | 17 | 291 | 0.0 | 4.8 | 0.00 | 0.00 | 0.00 | 55 | 1024.2 |
| 20260509051504 | 17 | 296 | 0.0 | 4.8 | 0.00 | 0.00 | 0.00 | 56 | 1024.3 |
| 20260509050100 | 16 | 297 | 3.2 | 8.0 | 0.00 | 0.00 | 0.00 | 57 | 1024.2 |
| 20260509050002 | 16 | 297 | 1.6 | 8.0 | 0.00 | 0.00 | 0.00 | 57 | 1024.2 |
| 20260509044558 | 16 | 295 | 0.0 | 4.8 | 0.00 | 0.00 | 0.00 | 57 | 1024.4 |
| 20260509044500 | 16 | 295 | 0.0 | 6.4 | 0.00 | 0.00 | 0.00 | 57 | 1024.3 |
| 20260509043107 | 16 | 296 | 0.0 | 4.8 | 0.00 | 0.00 | 0.00 | 57 | 1024.4 |
| 20260509041603 | 16 | 300 | 0.0 | 9.7 | 0.00 | 0.00 | 0.00 | 57 | 1024.5 |
| 20260509040104 | 16 | 304 | 3.2 | 8.0 | 0.00 | 0.00 | 0.00 | 57 | 1024.5 |
| 20260509034603 | 16 | 301 | 1.6 | 6.4 | 0.00 | 0.00 | 0.00 | 58 | 1024.5 |
| 20260509033049 | 16 | 321 | 1.6 | 9.7 | 0.00 | 0.00 | 0.00 | 60 | 1024.6 |
| 20260509031545 | 15 | 350 | 1.6 | 8.0 | 0.00 | 0.00 | 0.00 | 61 | 1024.7 |
| 20260509030043 | 15 | 342 | 1.6 | 9.7 | 0.00 | 0.00 | 0.00 | 64 | 1024.9 |
| 20260509024542 | 14 | 275 | 1.6 | 12.9 | 0.00 | 0.00 | 0.00 | 64 | 1025.1 |
| 20260509023039 | 14 | 275 | 0.0 | 12.9 | 0.00 | 0.00 | 0.00 | 65 | 1025.4 |
| 20260509021537 | 13 | 275 | 0.0 | 9.7 | 0.00 | 0.00 | 0.00 | 66 | 1025.6 |
| 20260509020040 | 13 | 294 | 1.6 | 6.4 | 0.00 | 0.00 | 0.00 | 66 | 1025.9 |
| 20260509014531 | 13 | 296 | 3.2 | 6.4 | 0.00 | 0.00 | 0.00 | 70 | 1026.1 |
| 20260509013034 | 12 | 304 | 0.0 | 8.0 | 0.00 | 0.00 | 0.00 | 73 | 1026.2 |
| 20260509011529 | 11 | 275 | 1.6 | 6.4 | 0.00 | 0.00 | 0.00 | 79 | 1026.3 |
| 20260509010036 | 10 | 271 | 1.6 | 6.4 | 0.00 | 0.00 | 0.00 | 83 | 1026.4 |
| 20260509004524 | 9 | 269 | 1.6 | 6.4 | 0.00 | 0.00 | 0.00 | 89 | 1026.7 |
| 20260509003015 | 8 | 340 | 0.0 | 6.4 | 0.00 | 0.00 | 0.00 | 94 | 1026.7 |
| 20260509001516 | 8 | 345 | 0.0 | 0.0 | 0.00 | 0.00 | 0.00 | 95 | 1026.9 |
| 20260509000015 | 7 | 344 | 0.0 | 4.8 | 0.00 | 0.00 | 0.00 | 95 | 1026.9 |
| 20260508234522 | 7 | 344 | 0.0 | 3.2 | 0.00 | 0.00 | 0.00 | 95 | 1026.9 |
| 20260508233015 | 6 | 355 | 0.0 | 0.0 | 0.00 | 0.00 | 0.00 | 95 | 1027.0 |
| 20260508231511 | 6 | 360 | 0.0 | 1.6 | 0.00 | 0.00 | 0.00 | 95 | 1026.9 |
| 20260508230016 | 6 | 360 | 0.0 | 0.0 | 0.00 | 0.00 | 0.00 | 95 | 1026.9 |
| 20260508224609 | 5 | 348 | 0.0 | 0.0 | 0.00 | 0.00 | 0.00 | 95 | 1026.8 |
| 20260508223006 | 5 | 348 | 0.0 | 3.2 | 0.00 | 0.00 | 0.00 | 95 | 1026.6 |
| 20260508221511 | 5 | 348 | 0.0 | 0.0 | 0.00 | 0.00 | 0.00 | 95 | 1026.5 |
| 20260508220100 | 5 | 348 | 0.0 | 0.0 | 0.00 | 0.00 | 0.00 | 94 | 1026.3 |
| 20260508220002 | 5 | 348 | 0.0 | 0.0 | 0.00 | 0.00 | 0.00 | 94 | 1026.3 |
| 20260508214606 | 5 | 348 | 0.0 | 0.0 | 0.00 | 0.00 | 0.00 | 94 | 1026.1 |
| 20260508214501 | 5 | 348 | 0.0 | 0.0 | 0.00 | 0.00 | 0.00 | 94 | 1026.1 |
| 20260508213057 | 5 | 348 | 0.0 | 0.0 | 0.00 | 0.00 | 0.00 | 94 | 1025.9 |
| 20260508211553 | -17 | 0.0 | 0.0 | 0.00 | 0.00 | 0.00 | 1025.8 | ||
| 20260508210049 | -17 | 0.0 | 0.0 | 0.00 | 0.00 | 0.00 | 1025.6 | ||
| 20260508204547 | -17 | 0.0 | 0.0 | 0.00 | 0.00 | 0.00 | 1025.3 | ||
| 20260508203039 | -17 | 0.0 | 0.0 | 0.00 | 0.00 | 0.00 | 1025.1 | ||
| 20260508201536 | -17 | 0.0 | 0.0 | 0.00 | 0.00 | 0.00 | 1024.8 | ||
| 20260508200043 | -17 | 0.0 | 0.0 | 0.00 | 0.00 | 0.00 | 1024.7 | ||
| 20260508194527 | -17 | 0.0 | 0.0 | 0.00 | 0.00 | 0.00 | 1024.5 | ||
| 20260508193022 | -17 | 0.0 | 0.0 | 0.00 | 0.00 | 0.00 | 1024.4 | ||
| 20260508191520 | 4 | 348 | 0.0 | 0.0 | 0.00 | 0.00 | 0.00 | 92 | 1024.2 |
| 20260508190018 | 4 | 348 | 0.0 | 0.0 | 0.00 | 0.00 | 0.00 | 92 | 1024.1 |